Accueil
METAR-TAF:

METAR-TAF

Aéroports :

Aéroport de Calais

Calais, France

latitude: 50-57-39N, longitude: 001-57-05E, altitude: 4 m

Observation

Le bulletin a été fait il y a 34 minutes, à 15:00 UTC
Vent 11 kt de sud/sud-est
Température 1°C
Humidité 93%
Pression 995 hPa
Visibilité: 3600 m
Nuages fragmentés à une hauteur de 800 ft
Ciel couvert à une hauteur de 1300 ft
neige, brume

METAR: LFAC 241500Z AUTO 15011KT 3600 SN BR BKN008 OVC013 01/M00 Q0995

Heure: 16:34 (15:34 UTC)


TAF: absent

Observations et prévisions météorologiques de plus de 4000 aéroports (messages METAR et TAF).

Les stations disponibles sont représentées par des disques jaunes et rouges sur la carte.

Passer la souris dessus pour voir le nom de la station.

Cliquer dessus pour voir les observations et prévisions météorologiques.

Pour changer de carte: cliquez sur les boutons verts avec une croix noire pour zoomer, sur le bouton vert avec un tiret pour effectuer un zoom arrière, ou sur les flèches vertes pour les cartes adjacentes.


METAR-TAF: